{"data":{"norad_id":81833,"intl_designator":"","name":"UNKNOWN","alt_names":[],"object_type":"UNKNOWN","status":"UNKNOWN","operator":null,"country":null,"launch_date":null,"launch_site_code":null,"launch_vehicle":null,"mission":null,"orbit_class":"UNKNOWN","rcs_meters":null,"size_class":null,"mass_kg":null,"dimensions":null,"purposes":[],"wikipedia_slug":null,"has_3d_model":false,"image_url":null,"decayed_at":null,"tle_current":{"epoch":"2026-07-08T10:59:41.718336Z","epoch_age_seconds":6411953,"freshness":"OLD","line1":"1 81833U          26189.45812174  .00000063  00000+0  20138-3 0  9996","line2":"2 81833  90.2426   7.5102 0025999 197.1791 162.8450 12.93810306479371","mean_motion":12.93810306,"eccentricity":0.0025999,"inclination_deg":90.2426,"raan_deg":7.5102,"arg_perigee_deg":197.1791,"mean_anomaly_deg":162.845,"bstar":0.00020138,"rev_number":47937,"period_min":111.29915980125,"perigee_km":1266.5113213777,"apogee_km":1306.3655808083,"semimajor_km":7664.575451093,"source":"CELESTRAK","updated_at":"2026-08-07T09:00:37.112654Z"}}}